Orbital Elements at Epoch 2459200.5 (2020-Dec-17.0) TDB
Reference: JPL 25 (heliocentric ecliptic J2000)
Element | Value | Uncertainty (1-sigma) | Units |
e | .1877688740012324 | 3.6108e-08 | |
a | 2.426440566316856 | 9.0087e-09 | au |
q | 1.970830553348627 | 8.8366e-08 | au |
i | 13.09114435723093 | 5.7552e-06 | deg |
node | 77.67706028454811 | 1.9229e-05 | deg |
peri | 52.38551959650032 | 2.5995e-05 | deg |
M | 325.6478504745287 | 1.6753e-05 | deg |
tp | 2459332.235956990017 (2021-Apr-27.73595699) | 6.4566e-05 | TDB |
period | 1380.552459497236 3.78 | 7.6884e-06 2.105e-08 | d yr |
n | .260765172321741 | 1.4522e-09 | deg/d |
Q | 2.882050579285084 | 1.07e-08 | au |
|
| | Orbit Determination Parameters
Additional Information
|